This is the latest recevied weather packets stored in our database for station/object N5TSS. If no packets are shown the sender has not sent any weather packets the latest 10 day(s).
| Time | Temp. | Humidity | Pressure | Rain* | Wind** | Luminosity | Snow |
|---|---|---|---|---|---|---|---|
| 1778015449 | 28.89° C | 70% | 1008.1 hPa | 0 mm | - | - | - |
| 1778015146 | 28.89° C | 71% | 1008.1 hPa | 0 mm | - | - | - |
| 1778014843 | 28.89° C | 71% | 1008.5 hPa | 0 mm | - | - | - |
| 1778014541 | 29.44° C | 70% | 1008.1 hPa | 0 mm | - | - | - |
| 1778014238 | 29.44° C | 71% | 1008.5 hPa | 0 mm | - | - | - |
| 1778013936 | 28.89° C | 71% | 1008.5 hPa | 0 mm | - | - | - |
| 1778013633 | 28.89° C | 70% | 1008.5 hPa | 0 mm | - | - | - |
| 1778013329 | 28.89° C | 71% | 1008.5 hPa | 0 mm | - | - | - |
| 1778013027 | 28.33° C | 73% | 1008.8 hPa | 0 mm | - | - | - |
| 1778012722 | 28.33° C | 72% | 1009.1 hPa | 0 mm | - | - | - |
| 1778012418 | 27.78° C | 72% | 1008.8 hPa | 0 mm | - | - | - |
| 1778012116 | 28.33° C | 72% | 1009.1 hPa | 0 mm | - | - | - |
| 1778011813 | 28.33° C | 72% | 1009.1 hPa | 0 mm | - | - | - |
| 1778011511 | 27.78° C | 73% | 1009.1 hPa | 0 mm | - | - | - |
| 1778011208 | 28.33° C | 72% | 1009.1 hPa | 0 mm | - | - | - |
| 1778010904 | 28.33° C | 72% | 1009.1 hPa | 0 mm | - | - | - |
| 1778010601 | 28.33° C | 72% | 1009.1 hPa | 0 mm | - | - | - |
| 1778010299 | 28.33° C | 72% | 1009.5 hPa | 0 mm | - | - | - |
| 1778009998 | 28.33° C | 72% | 1009.1 hPa | 0 mm | - | - | - |
| 1778009696 | 28.33° C | 73% | 1009.1 hPa | 0 mm | - | - | - |
| 1778009393 | 28.33° C | 73% | 1009.5 hPa | 0 mm | - | - | - |
| 1778009092 | 27.78° C | 74% | 1009.5 hPa | 0 mm | - | - | - |
| 1778008789 | 27.78° C | 74% | 1009.5 hPa | 0 mm | - | - | - |
| 1778008488 | 27.78° C | 75% | 1009.5 hPa | 0 mm | - | - | - |
| 1778008184 | 27.22° C | 75% | 1009.5 hPa | 0 mm | - | - | - |
* Rain latest hour (hover to see other rain measurements)
** Current wind speed in m/s (hover to see current wind gust speed)